COSMOS 2491 DEB, 57557

Orbit data source: Space-Track

COSMOS 2491 DEB, 57557 is space debris in LEO originally from a launch on Wed, 25 Dec 2013 UTC launched from the Plesetsk Missile And Space Complex (PKMTR). Debris objects in space refer to the collection of defunct objects orbiting the Earth. Examples of debris include non-operational satellites, rocket bodies, and fragments generated from explosions, collisions, or faulty payload assembly.

Loading next visibility...
Identifier
57557, 2013-076AU
Orbit
LEO
Country
Flag of CISCIS
Related business
Manufacturer
TsNIIKhM
Mission
Spacecraft
Bus & Motor
Unknown
Mass
Unknown
Launch date (UTC)
2013-12-25 (12 years ago)
Launch vehicle
Unknown
Launch site
Plesetsk Missile And Space Complex (PKMTR)
Object type
Payload
Rocket body
Debris
Shape & HBR
Unknown shape, 0.1 m
Radar Cross Section
Small (<0.1 m²)

Expand to show TLE details & history
Last TLE update: 1 week ago

TLE from 1 week ago
0 COSMOS 2491 DEB
1 57557U 13076AU  25304.75110920  .00001296  00000-0  88156-2 0  9993
2 57557  82.4817 310.2871 0058395 153.2371 207.1745 12.46393030112714
Epoch: 2025-10-31T18:01Z
TLE epoch observation values (Epoch: 2025-10-31T18:01:35.834Z)
Latitude
0.00001°
Longitude
-0.40326°
Altitude
1,523.206 km
Speed
7.085 km/s
True Right ascension
20h 41m 08s
True Declination
0° 00' 00"
Sunlit
Object was in daylight at epoch
Visualization orbit readout
Latitude
Unknown
Longitude
Unknown
Altitude
Unknown
Speed
Unknown
Apparent Right ascension
Unknown
Apparent Declination
Unknown
Sunlit
N/A
Visualization observer readout
Local Sidereal Time
06:14:14
Azimuth
Unknown
Elevation
Unknown
Doppler factor
Unknown
Orbital elements
Apogee altitude
1,522.835 km
Perigee altitude
1,431.095 km
Semi-major axis
7,855.102 km
Eccentricity
0.00584
Inclination
82.4817°
RAAN
310.2871°
Arg. of periapsis
153.2371°
True anomaly
206.87087°
Mean anomaly
207.1745°
Eccentric anomaly
207.02249°
Mean motion
3.11756 °/min
Orbital period
115.47 mins
BSTAR
0.0088156
Loading maneuver chart data...
Computing Atmospheric mass density...
Loading historical data...
Loading historical data...
Loading historical data...
Loading historical data...
Loading historical data...
Loading historical data...
Loading historical data...

Documentation

Showing up to 5 results
|